DH5DY-6 Weather Reports


Display with metric or nautical units.
time (UTC)temp
F
wind
direction
speed
MPH
gust
MPH
rain 1hr
in
rain 24hr
in
rain mn
in
humidity
%
barometer
mb
20190524132254 73 215 5.0 10.0 0.00 0.00 0.00 38 1014.2
20190524131254 73 307 1.0 7.0 0.00 0.00 0.00 38 1014.2
20190524130254 72 311 0.0 5.0 0.00 0.00 0.00 39 1014.3
20190524125254 71 305 1.0 3.0 0.00 0.00 0.00 38 1014.3
20190524124254 71 232 2.0 5.0 0.00 0.00 0.00 38 1014.3
20190524123254 71 288 1.0 6.0 0.00 0.00 0.00 36 1014.3
20190524122254 71 294 1.0 6.0 0.00 0.00 0.00 35 1014.4
20190524121254 71 207 1.0 4.0 0.00 0.00 0.00 38 1014.4
20190524120255 72 267 0.0 8.0 0.00 0.00 0.00 33 1014.3
20190524115254 72 215 3.0 9.0 0.00 0.00 0.00 38 1014.4
20190524114254 72 266 2.0 10.0 0.00 0.00 0.00 35 1014.4
20190524113254 72 223 1.0 8.0 0.00 0.00 0.00 36 1014.4
20190524112256 72 230 2.0 8.0 0.00 0.00 0.00 41 1014.6
20190524111254 72 190 1.0 6.0 0.00 0.00 0.00 38 1014.7
20190524110253 71 180 0.0 8.0 0.00 0.00 0.00 34 1014.8
20190524105254 72 219 1.0 9.0 0.00 0.00 0.00 36 1014.9
20190524104254 72 290 0.0 3.0 0.00 0.00 0.00 44 1014.9
20190524103254 70 289 0.0 1.0 0.00 0.00 0.00 38 1015.1
20190524102254 71 297 0.0 3.0 0.00 0.00 0.00 39 1015.1
20190524101254 70 302 1.0 9.0 0.00 0.00 0.00 38 1015.2
20190524100253 70 258 0.0 7.0 0.00 0.00 0.00 41 1015.2
20190524095253 69 266 0.0 6.0 0.00 0.00 0.00 42 1015.3
20190524094254 69 219 2.0 6.0 0.00 0.00 0.00 47 1015.3
20190524093253 68 161 0.0 3.0 0.00 0.00 0.00 44 1015.4
20190524092254 68 339 0.0 0.0 0.00 0.00 0.00 46 1015.4
20190524091254 69 338 0.0 1.0 0.00 0.00 0.00 46 1015.4
20190524090253 68 321 0.0 3.0 0.00 0.00 0.00 49 1015.5